Location: Hilton Head Island
(32.2163°N, 80.7526°W)
Time: 02:33:42
(UTC-04:00)

Tiros 1 despin weight - Pass Details

Date: 19 February 2026
Orbit: 556 x 593 km, 48.2° (Epoch: 9 March)

Event Time Altitude Azimuth Distance (km) Brightness Sun altitude
Rises 20:18:41 0° 316° (NW) 2,732 ? -27.3°
Reaches altitude 10° 20:21:04 10° 325° (NW) 1,837 ? -27.8°
Enters shadow 20:22:36 20° 337° (NNW) 1,320 ? -28.1°
Maximum altitude 20:24:58 36° 33° (NNE) 884 - -28.6°
Drops below altitude 10° 20:28:52 10° 101° (E) 1,844 - -29.5°
Sets 20:31:16 0° 110° (ESE) 2,743 - -30.0°
